sat.trackr.live / text

‹ back to catalog

STARLINK-11610 [DTC]

NORAD 63135 · 2025-043D

PAYLOAD ACTIVE UNKNOWN

§ Identity

Operator
Country
US
Launch date
2025-03-03
Launch site
AFETR
Launch vehicle
Mass (kg)
RCS (m²)

Purposes: comms

External: N2YO · Heavens-Above · Gunter

§ Orbital elements

Epoch: 2026-05-25T01:56:44.136960Z

Period
91.67 min
Inclination
43.0009°
Eccentricity
0.0003707
Mean motion
15.70860147 rev/d
Perigee alt
353.9 km
Apogee alt
358.9 km
Semi-major
6,734.6 km
B*
1.5077e-3
RAAN
150.5116°
Arg perigee
289.4783°
Mean anomaly
70.5684°
Rev number
7,136

§ Raw data

STARLINK-11610 [DTC]1 63135U 25043D   26145.08106640  .00197891  00000+0  15077-2 0  99912 63135  43.0009 150.5116 0003707 289.4783  70.5684 15.70860147 71369

JSON: /api/v1/satellites/63135 · /tle

For live sub-satellite position, see the globe view (requires WebGL).

§ Visibility from observer

Set your observer location to see the next 7 days of passes ≥ 10°. The values pass through the URL so the page stays shareable.

No JS? Fill the form by hand. The geolocation button needs JavaScript.